Tracking 28790 objects as of 19-Apr-2024
HD Live streaming from Space Station
objects crossing your sky now

FENGYUN 1C DEB

Track FENGYUN 1C DEB now!
10-day predictions


NORAD ID: 41011
Int'l Code: 1999-025EXR
Perigee: 540.9 km
Apogee: 1,022.5 km
Inclination: 99.2 °
Period: 100.3 minutes
Semi major axis: 7152 km
RCS: Unknown
Launch date: May 10, 1999
Source: People's Republic of China (PRC)
Launch site: Taiyaun Space Center, China (TSC)

Note: This is SATELLITE DEBRIS
Your satellite tracking list
Your tracking list is empty




NASA's NSSDC Master Catalog

Two Line Element Set (TLE):
1 41011U 99025EXR 24107.23109371  .00014285  00000-0  26255-2 0  9994
2 41011  99.2028 101.0261 0336605 336.6763  21.9447 14.35149985484458
Source of the keplerian elements: AFSPC